This is the latest recevied weather packets stored in our database for station/object KC1TWD. If no packets are shown the sender has not sent any weather packets the latest 10 day(s).
| Time | Temp. | Humidity | Pressure | Rain* | Wind** | Luminosity | Snow |
|---|---|---|---|---|---|---|---|
| 1777680163 | 10.56° C | 54% | 1010.4 hPa | 0 mm | - | - | - |
| 1777679858 | 10.56° C | 49% | 1010.4 hPa | 0 mm | - | - | - |
| 1777679555 | 11.11° C | 50% | 1010.3 hPa | 0 mm | - | - | - |
| 1777679250 | 11.11° C | 49% | 1010.1 hPa | 0 mm | - | - | - |
| 1777678948 | 11.67° C | 49% | 1010.1 hPa | 0 mm | - | - | - |
| 1777678646 | 12.22° C | 44% | 1009.9 hPa | 0 mm | - | - | - |
| 1777678343 | 12.22° C | 45% | 1009.7 hPa | 0 mm | - | - | - |
| 1777678038 | 12.78° C | 42% | 1009.8 hPa | 0 mm | - | - | - |
| 1777677736 | 12.78° C | 42% | 1009.6 hPa | 0 mm | - | - | - |
| 1777677433 | 13.33° C | 39% | 1009.6 hPa | 0 mm | - | - | - |
| 1777677131 | 13.33° C | 39% | 1009.5 hPa | 0 mm | - | - | - |
| 1777676830 | 13.33° C | 36% | 1009.7 hPa | 0 mm | - | - | - |
| 1777676528 | 13.33° C | 38% | 1009.6 hPa | 0 mm | - | - | - |
| 1777676225 | 13.89° C | 37% | 1009.5 hPa | 0 mm | - | - | - |
| 1777675922 | 13.89° C | 39% | 1009.5 hPa | 0 mm | - | - | - |
| 1777675618 | 13.89° C | 36% | 1009.4 hPa | 0 mm | - | - | - |
| 1777675315 | 13.89° C | 36% | 1009.7 hPa | 0 mm | - | - | - |
| 1777675012 | 13.89° C | 38% | 1009.5 hPa | 0 mm | - | - | - |
| 1777674709 | 13.89° C | 35% | 1009.5 hPa | 0 mm | - | - | - |
| 1777674405 | 14.44° C | 36% | 1009.3 hPa | 0 mm | - | - | - |
| 1777674102 | 14.44° C | 34% | 1009.5 hPa | 0 mm | - | - | - |
| 1777673798 | 14.44° C | 35% | 1009.3 hPa | 0 mm | - | - | - |
| 1777673496 | 14.44° C | 35% | 1009.4 hPa | 0 mm | - | - | - |
| 1777673194 | 14.44° C | 36% | 1009.3 hPa | 0 mm | - | - | - |
| 1777672890 | 14.44° C | 35% | 1009.1 hPa | 0 mm | - | - | - |
* Rain latest hour (hover to see other rain measurements)
** Current wind speed in m/s (hover to see current wind gust speed)